KQ4KIJ-13 Weather Reports


time (UTC)temp
C
wind
direction
speed
KPH
gust
KPH
rain 1hr
cm
rain 24hr
cm
rain mn
cm
humidity
%
barometer
mb
20260505041327 15 55 3.2 6.4 0.00 0.00 0.00 58 1017.5
20260505032949 16 87 3.2 4.8 0.00 0.00 0.00 54 1017.3
20260505025949 17 96 1.6 6.4 0.00 0.00 0.00 52 1017.3
20260505022949 17 273 3.2 6.4 0.00 0.00 0.00 50 1017.1
20260505015948 18 201 3.2 9.7 0.00 0.00 0.00 50 1017.0
20260505012949 18 142 3.2 6.4 0.00 0.00 0.00 49 1016.6
20260505005948 19 284 6.4 9.7 0.00 0.00 0.00 47 1016.3
20260505002949 20 294 3.2 9.7 0.00 0.00 0.00 46 1015.8
20260504235948 21 236 3.2 17.7 0.00 0.00 0.00 43 1015.6
20260504232949 22 48 4.8 20.9 0.00 0.00 0.00 41 1015.8
20260504225948 22 277 12.9 20.9 0.00 0.00 0.00 39 1015.4
20260504224324 23 165 4.8 19.3 0.00 0.00 0.00 38 1015.2
20260504215948 23 191 3.2 19.3 0.00 0.00 0.00 35 1015.4
20260504212949 23 271 6.4 27.4 0.00 0.00 0.00 32 1015.3
20260504205949 23 256 4.8 20.9 0.00 0.00 0.00 31 1015.4
20260504202949 23 9 3.2 19.3 0.00 0.00 0.00 31 1015.9
20260504195951 24 182 3.2 16.1 0.00 0.00 0.00 32 1016.3
20260504192949 24 208 3.2 14.5 0.00 0.00 0.00 32 1016.3
20260504185949 24 174 4.8 14.5 0.00 0.00 0.00 34 1016.9
20260504182949 23 28 6.4 9.7 0.00 0.00 0.00 35 1017.2
20260504175949 22 33 6.4 16.1 0.00 0.00 0.00 37 1017.6
20260504174332 22 42 8.0 14.5 0.00 0.00 0.00 38 1017.6
20260504042949 8 80 1.6 6.4 0.00 0.00 0.00 65 1019.5